Location: ??????
(36.0418°N, 43.6351°E)
Time: 04:14:33
(UTC+00:00)

CZ-4C R/B - Pass Details

Date: 07 March 2021
Orbit: 613 x 1388 km, 63.4° (Epoch: 19 April)

Event Time Altitude Azimuth Distance (km) Brightness Sun altitude
Exits shadow 01:19:06 38° 157° (SSE) 1,042 2.7 -26.7°
Maximum altitude 01:20:20 48° 115° (ESE) 925 2.6 -26.4°
Drops below altitude 10° 01:25:27 10° 42° (NE) 2,377 5.2 -25.4°
Sets 01:28:11 0° 37° (NE) 3,435 6.1 -24.9°
